User: anonymous   Login
Location: Unspecified
(0.0000°N, 0.0000°E)
Time: 06:49:15
(UTC+00:00)
Language:

STARLINK-5324 - Orbit

View from above orbital plane
View from above orbital plane
View from above satellite
View from above satellite

Ground track
Ground track

The orbit is defined by the following mean orbital elements,

1 55677U          26145.42985378 +.00000000 +00000-0 +22401-4 0 00000
2 55677  69.9993 310.9223 0002699 270.1557  89.9293 14.98331556    05
Epoch (UTC): 25 May 2026 10:18:59
Eccentricity: 0.0002699
inclination: 69.9993°
perigee height: 570 km
apogee height: 574 km
right ascension of ascending node: 310.9223°
argument of perigee: 270.1557°
revolutions per day: 14.98331556
mean anomaly at epoch: 89.9293°

The dashed part of the orbit path shows where the satellite is in the earth's shadow,  

DLR